GEFSMA_500_meanwind_000.txt.gz
Wind_Speed
66 66 65 63 63 62 60 58 57 57 57 57 56 54 52 52 53 54 54 54 53 52 50 49 46 42 39 36 38 40 41 38 36 33 31 29 28 27 26 25 24 23 22
71 69 68 68 67 66 65 64 63 62 61 59 58 56 55 55 55 55 55 56 56 54 53 51 49 45 43 39 38 40 43 43 41 38 35 33 30 28 26 24 23 23 24
78 76 72 70 71 71 69 68 68 67 66 65 62 59 57 57 57 56 56 56 57 56 55 54 52 50 47 45 41 42 45 46 46 42 39 36 34 31 29 27 25 23 23
82 81 80 76 74 74 74 72 70 69 69 69 67 65 61 59 60 59 58 57 58 58 57 57 56 54 52 49 47 44 48 48 49 47 43 39 37 35 33 31 29 27 25
85 84 83 83 82 79 78 76 74 71 70 70 70 69 66 63 62 63 62 60 59 59 59 58 58 57 55 53 51 49 50 49 49 51 47 43 40 38 36 35 33 31 30
82 88 87 85 86 86 84 82 80 77 73 71 71 71 70 68 66 66 65 64 63 61 60 59 59 59 57 55 53 53 52 51 48 49 49 46 43 42 40 39 37 35 33
60 76 90 91 89 89 88 86 85 82 79 74 73 72 70 69 68 68 67 66 66 65 63 62 60 60 59 57 55 55 54 51 50 46 43 45 45 44 42 41 39 38 36
51 56 68 86 95 93 92 91 88 85 81 79 76 74 72 70 69 69 68 68 68 67 67 65 64 63 62 60 58 57 55 54 51 50 48 44 44 46 45 44 42 40 39
49 50 55 66 84 96 96 94 92 90 85 81 79 77 75 72 71 71 69 68 68 69 69 68 67 66 65 64 62 60 59 58 56 54 52 49 45 46 45 45 45 44 42
47 49 49 50 63 81 93 97 96 94 91 86 82 81 80 77 75 73 72 70 69 70 70 71 70 69 68 67 66 65 63 62 61 59 56 54 52 50 46 44 44 43 42
44 44 43 43 45 59 73 85 94 95 94 91 86 84 84 81 78 76 73 72 70 70 71 71 71 71 71 71 69 67 67 66 65 63 61 59 56 51 47 44 43 42 43
40 39 39 38 38 41 51 63 75 86 91 92 90 88 87 86 83 80 78 74 73 72 72 72 71 71 70 71 70 70 69 68 67 66 64 61 59 54 51 48 45 45 46
38 35 35 36 35 34 36 46 56 65 78 86 89 88 88 88 86 84 84 80 76 74 75 75 73 72 71 71 69 69 69 68 66 64 63 61 59 57 54 52 50 49 48
40 35 32 33 33 33 32 34 40 49 57 68 78 84 86 87 87 86 86 85 82 79 77 76 76 75 73 72 71 70 69 67 65 63 62 61 60 59 58 56 55 53 51
40 38 34 30 31 32 32 31 33 37 43 51 58 68 77 82 86 87 89 89 86 84 82 79 74 74 75 73 73 73 72 70 68 65 62 61 61 61 62 61 59 59 55
39 40 39 34 32 33 34 34 34 36 37 40 45 53 62 70 77 81 85 87 88 87 85 82 78 74 74 75 73 72 73 73 71 69 67 65 63 62 63 63 63 62 59
41 39 40 40 37 35 35 37 35 35 36 37 38 41 48 54 62 71 77 81 84 86 85 82 81 79 75 76 74 71 72 73 72 70 69 69 68 67 67 66 66 64 62
43 41 39 41 42 41 38 37 36 34 36 37 37 37 40 42 45 51 60 71 79 83 84 81 79 80 78 78 76 73 72 71 71 68 68 68 69 69 69 69 67 66 66
41 40 38 38 41 44 44 41 38 37 38 38 39 38 38 39 39 41 47 55 65 75 82 83 80 79 79 79 78 78 77 74 73 71 70 68 69 71 72 72 71 70 70
38 34 34 34 36 42 47 45 44 42 41 40 40 42 42 41 42 42 43 47 53 61 69 77 77 77 83 82 76 74 76 77 76 74 73 71 72 73 72 70 73 75 75
35 30 28 29 31 36 45 46 46 45 44 44 44 43 44 43 42 43 46 48 50 56 59 65 69 66 75 78 76 69 68 69 73 73 75 74 73 76 75 71 70 71 73
34 29 26 25 27 32 38 45 47 46 45 45 45 44 44 42 41 45 49 48 47 53 51 54 69 69 67 69 71 70 69 69 71 73 74 75 75 72 74 76 73 71 71
37 32 27 23 24 30 33 39 44 44 42 42 42 42 41 40 39 35 35 36 38 49 48 49 53 61 63 65 65 66 70 76 75 72 72 72 74 73 74 74 71 69 70
42 33 28 23 22 28 31 33 38 38 40 40 40 40 37 35 36 35 39 40 39 47 51 56 55 56 57 56 63 64 58 64 72 72 70 68 69 69 70 71 72 74 73
44 34 26 22 21 25 29 31 35 38 40 42 42 40 38 38 36 41 46 40 39 48 53 56 55 58 58 60 55 52 55 63 66 69 70 70 69 67 68 68 68 69 69
41 30 23 20 19 21 26 30 35 38 42 43 44 44 45 46 40 40 41 37 38 44 51 54 50 52 49 47 54 62 59 57 60 60 59 61 64 62 59 64 68 68 67

GEFSMA_500_meanwind_006.txt.gz
Wind_Speed
82 79 76 74 74 74 75 77 78 77 74 73 70 67 65 63 63 65 67 66 62 59 58 55 53 52 52 50 48 46 44 42 40 37 35 33 32 31 31 33 35 35 35
86 86 84 82 80 78 78 78 79 80 79 77 75 73 70 68 65 65 68 69 66 64 62 59 57 56 55 53 51 49 47 45 42 40 39 36 35 34 33 32 32 34 36
75 78 79 80 80 79 78 80 82 82 83 82 80 78 75 73 70 66 65 68 67 65 64 62 61 58 57 54 53 52 49 46 43 42 41 40 38 37 36 35 33 32 33
58 59 62 65 69 72 73 75 80 84 85 85 84 82 80 78 76 74 68 65 65 64 64 63 62 60 58 56 55 55 52 47 45 44 43 42 41 40 38 37 36 35 34
56 56 56 57 59 62 64 67 72 81 86 88 87 86 84 83 80 78 76 72 67 63 63 63 63 62 60 59 57 57 54 50 47 47 46 44 43 43 41 38 37 36 35
61 60 59 57 57 56 55 56 62 72 83 89 90 89 86 85 83 80 79 77 73 68 64 63 63 63 62 61 60 59 57 54 51 49 47 45 44 46 45 41 39 37 35
64 62 60 58 58 57 55 54 53 57 71 85 90 91 89 87 86 85 82 79 76 73 68 65 64 64 63 63 62 61 59 57 54 52 49 47 46 42 45 45 42 40 38
63 62 62 60 59 59 58 56 53 50 54 69 84 92 93 89 88 86 85 82 80 77 74 69 66 66 65 64 63 63 61 59 57 55 53 50 48 45 42 46 46 44 43
51 53 56 58 59 58 59 59 56 52 49 53 67 85 94 94 90 87 86 84 83 82 78 75 71 68 67 66 65 64 63 61 60 58 56 54 51 47 44 42 49 50 48
45 45 46 48 52 54 56 60 60 55 52 49 52 67 86 95 94 90 87 85 83 82 80 78 75 72 70 69 68 66 65 63 61 60 59 56 55 52 47 44 45 53 52
45 44 44 44 44 47 51 56 60 58 54 51 48 52 70 89 96 93 88 87 85 82 79 77 75 74 72 72 71 69 67 65 63 62 60 59 56 55 50 50 44 51 55
46 46 44 44 44 43 46 51 56 58 55 52 49 47 55 75 93 97 93 88 86 81 77 72 71 73 72 72 74 73 70 68 66 65 63 60 58 55 54 51 48 47 54
45 45 44 43 43 43 43 46 52 55 54 51 49 48 49 60 82 96 97 92 88 83 76 71 70 70 72 73 74 75 73 71 69 67 64 61 60 57 55 52 51 49 49
44 44 43 42 41 41 41 42 46 51 53 50 48 47 47 51 66 88 98 97 92 88 81 72 71 69 69 70 72 74 74 72 71 69 66 63 61 60 57 54 51 50 48
46 45 43 41 39 38 39 40 42 46 50 48 45 44 43 45 52 72 91 98 97 92 88 81 75 73 69 66 65 70 73 73 72 71 68 65 63 61 59 56 54 52 50
45 43 41 40 37 35 37 38 40 42 45 45 43 40 39 41 44 55 75 91 97 96 91 87 83 79 75 69 62 64 69 71 72 72 71 68 65 62 59 58 56 55 54
45 42 40 39 37 33 34 36 38 38 40 43 41 39 37 37 40 45 57 75 89 95 93 89 87 84 80 76 68 65 65 65 67 70 71 69 67 65 62 60 59 58 57
47 45 43 40 38 34 32 33 35 35 36 40 41 39 37 36 37 41 47 60 75 88 92 90 88 86 84 81 75 71 68 64 63 64 66 67 67 66 64 63 62 60 60
52 49 48 45 40 35 31 30 31 32 33 37 39 39 37 36 36 37 42 50 63 76 85 87 85 85 84 82 78 74 72 68 65 63 62 62 63 65 64 63 62 60 59
56 55 51 45 39 34 30 29 29 29 30 34 38 39 37 36 35 35 38 44 54 65 74 79 81 81 81 81 79 75 73 71 68 65 63 61 60 61 63 63 62 60 59
61 57 49 40 33 29 27 27 27 27 27 31 35 38 38 35 35 35 36 38 46 55 64 70 73 75 76 78 78 76 74 72 68 65 63 62 61 60 61 62 63 62 60
61 51 39 28 23 23 23 24 26 26 25 29 33 36 37 36 35 35 35 36 40 46 53 60 65 69 72 75 76 76 75 73 69 67 63 62 62 60 59 59 60 62 63
57 43 28 16 13 18 21 23 25 24 24 27 32 35 37 37 36 37 37 36 38 41 46 51 56 60 64 69 71 72 73 71 68 66 65 62 62 62 60 58 58 58 58
51 36 21 8 9 15 19 21 22 21 21 25 31 35 36 38 38 38 38 38 38 39 42 46 49 51 55 59 62 66 68 68 67 65 63 62 63 62 62 60 58 58 57
46 31 17 5 8 13 17 19 18 18 19 24 31 35 36 37 39 39 39 39 39 40 41 43 44 46 48 51 55 60 64 65 65 64 63 63 63 63 64 63 62 60 58
44 30 17 5 6 11 14 16 15 16 19 24 31 36 38 38 38 38 39 39 39 40 41 40 40 41 41 44 48 52 56 60 63 64 64 62 61 63 64 64 63 63 64

GEFSMA_500_meanwind_012.txt.gz
Wind_Speed
96 94 94 93 92 91 90 88 86 84 82 80 79 78 79 79 77 74 71 68 67 67 65 63 62 61 61 58 57 57 56 56 53 49 46 43 41 39 37 36 34 35 36
87 86 84 84 84 85 86 86 86 84 84 83 83 82 82 82 81 79 76 73 70 69 69 68 66 65 63 62 58 56 55 56 57 53 49 46 43 41 40 38 36 35 36
70 70 70 71 72 73 75 77 79 81 81 83 85 86 85 84 84 83 81 78 75 72 71 72 71 68 66 65 63 59 55 55 58 56 52 49 46 44 42 39 37 36 36
64 63 63 62 63 65 67 68 70 73 76 79 83 87 88 88 88 87 85 83 81 77 74 74 74 73 70 68 67 65 62 56 55 53 52 51 49 47 44 41 38 36 36
63 63 62 61 60 61 63 66 67 68 70 73 77 82 87 91 92 91 89 87 86 82 79 76 76 76 74 71 70 69 67 62 57 53 52 51 51 50 46 43 40 38 37
62 61 60 59 59 59 60 63 67 69 69 69 71 75 81 87 92 94 93 91 89 87 84 80 77 77 76 74 73 72 71 67 61 57 54 50 50 51 49 45 43 41 39
59 58 57 57 57 57 57 59 63 68 71 72 70 70 72 79 86 91 94 95 93 90 87 84 81 78 77 76 74 75 75 73 67 62 59 55 50 50 50 47 45 43 41
54 52 51 50 50 51 53 55 57 62 68 73 73 71 69 71 77 83 90 95 96 93 90 86 83 82 80 78 75 75 78 77 73 67 63 59 55 50 48 48 47 45 43
48 47 45 44 43 43 44 47 51 55 60 66 74 75 73 71 72 77 83 91 96 96 93 87 83 82 81 80 78 75 77 80 78 72 67 63 59 54 49 48 47 46 45
48 47 45 44 42 41 41 41 43 48 52 58 66 74 76 74 72 74 79 85 93 97 96 92 86 81 79 79 78 75 75 81 81 76 70 65 62 59 54 49 48 46 45
51 50 48 46 44 43 42 41 40 42 45 51 57 66 74 76 74 73 75 81 88 96 99 97 93 87 82 79 78 74 72 76 80 78 72 67 65 63 59 54 51 49 47
53 52 51 49 47 45 43 42 41 40 41 44 50 58 68 76 77 74 72 75 83 91 98 100 98 95 90 85 82 79 73 71 76 77 73 70 67 65 62 59 55 53 50
55 54 53 51 50 47 45 43 41 40 39 40 44 51 59 70 76 76 73 71 75 84 94 100 102 101 98 93 87 82 78 72 73 75 73 71 69 66 64 63 60 56 54
58 57 55 53 51 49 46 43 42 40 37 37 40 46 52 61 72 75 75 71 69 75 86 96 101 102 102 99 92 85 82 78 74 75 74 72 70 68 65 64 63 60 58
62 61 58 56 52 50 47 44 42 40 37 35 36 41 47 53 63 72 75 73 69 68 76 89 99 102 102 100 96 90 84 82 78 76 76 73 70 69 67 65 64 62 60
67 65 62 58 55 51 49 45 42 39 36 33 33 37 43 47 55 66 72 74 70 65 68 78 93 100 99 97 95 93 88 85 82 79 77 75 72 69 68 67 65 64 62
71 66 61 54 49 45 43 41 40 37 34 32 31 33 39 44 50 60 68 72 70 63 61 69 82 95 96 94 91 90 88 86 85 82 79 77 74 71 69 68 66 64 63
70 61 49 39 32 27 28 30 31 31 30 29 28 30 36 41 46 54 63 68 68 64 58 60 72 87 93 91 88 87 86 86 85 84 80 78 76 73 70 68 67 66 63
63 49 35 23 16 11 10 14 19 22 24 25 26 28 33 38 42 49 58 64 65 63 59 54 62 77 88 88 85 83 84 85 84 84 82 79 77 75 72 69 67 66 64
57 39 24 17 14 11 7 2 7 13 18 20 23 26 30 35 39 45 53 59 61 59 58 53 55 67 81 84 82 79 80 85 85 83 82 80 78 75 74 71 68 66 65
53 35 16 11 11 11 11 6 2 7 12 16 20 24 28 33 37 41 48 53 56 56 55 53 53 61 76 83 82 78 76 81 83 82 81 80 78 75 73 71 70 67 65
51 35 17 3 5 6 7 3 1 3 7 12 17 22 27 31 34 38 43 48 50 51 50 50 52 60 74 87 87 81 75 76 79 81 81 80 79 76 72 70 69 68 66
53 38 23 10 2 4 3 3 4 3 4 8 14 21 26 29 32 36 40 43 44 44 44 45 49 57 74 89 91 83 78 77 78 80 80 79 79 76 72 70 68 67 67
57 41 29 18 8 4 6 6 6 6 4 7 13 20 25 28 31 34 36 38 39 38 37 38 43 52 71 90 97 91 82 78 77 79 81 78 77 75 72 70 68 67 66
63 47 35 26 17 11 8 8 7 5 4 7 13 20 24 28 30 32 33 34 34 33 32 33 36 46 64 87 99 99 90 80 77 79 80 79 76 74 71 69 67 66 65
70 57 42 32 24 18 14 11 8 6 3 7 12 18 24 28 30 31 30 30 30 29 28 29 32 39 53 76 96 101 96 87 79 78 78 77 74 71 68 67 65 63 62

GEFSMA_500_meanwind_018.txt.gz
Wind_Speed
88 84 80 78 77 76 76 76 77 79 82 86 89 90 90 91 90 89 88 87 84 82 78 75 73 71 69 68 67 65 63 61 60 57 55 52 49 47 45 44 42 41 39
81 78 76 74 72 71 70 71 72 73 73 75 79 83 87 91 93 93 92 92 90 87 84 81 77 74 72 69 68 67 65 63 62 61 59 56 53 50 48 46 44 42 41
77 76 73 68 64 62 61 62 65 68 70 71 72 76 82 88 92 96 96 96 95 92 89 86 82 78 75 72 70 68 66 64 64 64 62 60 57 54 51 50 47 45 43
74 70 65 58 53 51 50 50 53 58 63 67 69 71 77 85 91 95 98 99 99 97 94 91 87 83 79 76 73 70 66 64 63 64 65 63 61 58 55 53 51 49 47
69 63 56 51 48 46 46 46 46 48 52 58 64 68 71 79 88 94 98 101 103 101 98 95 92 88 83 79 76 73 69 65 63 63 65 66 65 62 60 58 55 53 50
64 57 52 50 49 49 49 48 47 47 47 48 53 61 67 74 83 91 97 102 105 104 102 99 96 92 88 84 80 77 73 68 63 62 64 66 66 65 63 62 60 58 54
61 56 53 53 53 54 54 54 52 50 49 48 47 50 59 69 77 85 93 100 105 106 105 103 99 96 93 88 84 81 77 74 67 61 63 65 65 65 62 62 62 62 59
60 57 56 57 58 59 59 59 58 55 52 52 49 46 49 60 71 80 88 95 102 107 108 106 103 100 96 93 88 85 81 78 75 67 61 62 63 62 61 60 61 63 63
60 59 60 61 63 64 64 64 63 60 56 54 53 49 46 51 62 73 83 90 97 104 108 109 106 103 100 96 93 89 86 83 80 77 66 62 64 64 63 60 59 63 66
61 62 64 67 69 70 70 69 67 64 60 56 54 52 49 46 54 64 76 85 91 98 105 110 109 107 103 100 97 93 90 86 84 82 78 67 62 61 61 58 57 61 66
62 66 69 73 74 74 73 72 69 66 62 58 54 53 51 48 48 57 67 78 87 92 99 107 110 110 106 103 100 97 94 90 87 86 83 77 69 61 60 59 58 57 63
67 72 75 75 73 71 69 67 65 63 60 57 53 51 50 48 48 49 59 70 81 87 91 99 107 110 109 105 102 100 97 93 89 87 85 83 78 70 62 59 57 54 57
75 78 75 68 62 57 53 52 52 53 53 52 50 49 48 47 47 47 52 62 74 83 87 90 99 107 110 107 103 101 99 97 92 88 85 85 82 77 68 62 59 54 54
81 78 70 61 53 46 41 36 34 37 41 44 44 44 44 45 45 46 48 56 67 78 85 86 89 99 108 108 104 100 101 99 95 91 85 83 83 80 75 67 60 57 54
82 76 65 55 47 42 36 29 22 21 28 34 37 38 40 41 42 44 45 50 61 72 81 84 85 91 101 106 105 100 99 100 97 94 88 83 81 80 78 74 65 59 56
79 71 59 50 44 39 34 26 15 7 15 23 29 32 34 36 38 40 43 46 55 67 76 82 82 84 91 100 105 102 98 99 98 96 90 84 81 79 78 76 73 66 61
76 66 54 46 40 36 32 28 19 8 5 14 21 26 29 32 34 37 40 44 50 61 71 78 81 81 84 92 102 104 99 96 98 98 94 88 82 78 77 75 73 70 66
73 62 50 41 36 32 30 27 23 14 6 6 13 19 24 28 30 33 37 41 46 55 66 74 80 79 79 84 94 102 101 97 97 98 95 91 85 80 77 75 73 70 68
72 60 47 38 32 28 26 24 20 14 7 2 8 14 20 24 27 29 33 37 42 49 60 69 76 79 76 78 86 97 101 98 96 96 95 93 88 82 78 75 73 71 67
73 62 47 36 29 25 22 19 16 11 5 2 8 13 17 21 23 26 29 33 38 45 55 65 72 77 76 74 77 90 99 100 97 94 93 90 87 83 79 76 73 71 68
75 67 52 38 29 24 21 17 14 10 6 6 9 12 16 18 20 22 26 30 35 41 50 60 69 74 75 72 72 81 92 99 98 93 89 86 83 80 78 76 75 72 69
75 71 60 45 33 26 22 18 15 12 9 8 9 11 13 15 17 19 23 27 33 39 47 56 65 71 73 70 68 71 82 93 98 94 89 84 81 80 79 77 75 72 69
73 73 67 54 41 32 26 21 18 14 12 9 9 9 10 12 14 17 20 25 30 36 44 53 62 68 69 67 64 64 72 83 92 95 91 83 79 78 78 78 77 74 70
70 71 70 63 50 39 32 26 22 17 14 10 7 6 6 9 12 15 19 23 28 34 42 50 58 64 65 63 60 60 63 71 82 92 92 84 78 76 77 76 75 73 71
67 69 70 68 59 47 37 31 26 21 17 12 7 3 3 7 11 15 18 22 26 32 39 47 54 60 62 59 56 54 58 64 73 82 86 83 77 75 75 74 74 73 72
65 67 68 69 66 56 44 36 30 25 20 15 9 4 3 8 12 16 19 22 25 31 38 44 51 56 58 57 52 49 51 58 66 74 81 79 75 73 74 73 72 72 71